Zurück zum Katalog

STARLINK-33614

AktivKommunikationVLEO
NORAD 63372·PAYLOAD·🇺🇸 United States

Gestartet Mar 26, 2025 von Vandenberg Space Force Base

Loading…

Nächste Überflüge (nächste 24 Stunden)

TLE

AktuellSource: CelesTrak SupGP

Epoche: Sep 14, 2026, 22:49 UTC

1 63372C 25063K   26257.95118056  .00034983  00000+0  10335-2 0  2571
2 63372  53.1569 247.8543 0001383  90.6651 277.6063 15.34375867    18

Verfolge STARLINK-33614 in Echtzeit mit AllMySat

Download on the App Store